Starlink 31341

operational
NORAD ID: 59155 Int'l Des: 2024-044 Owner: SPXS Country: US Constellation: starlink
LEOCIRCULAR

Starlink 31341について

説明を読み込み中...

リアルタイム位置

3D地球を読み込み中...

次回通過

高度履歴

Altitude vs Time

uPlot chart will show altitude changes over time

軌道要素

1 59155U 24044D 25304.54670241 .00000320 00000-0 22053-4 0 9993
2 59155 43.0023 119.9091 0001165 267.8889 92.1829 15.25914142 93771
Epoch: Oct 31, 2025 • Age: 15 hours

現在のステータス

高度 491.4 km
速度 7.62 km/s
衛星直下点 -17.54°S, 147°W
打ち上げ日 Mar 4, 2024
運用期間 1.6 years
タイプ internet

技術仕様

分類 Payload
質量 730.00 kg
乾燥質量 700.00 kg
総質量 730.00 kg
長さ 0.30 m
直径 4.10 m
スパン 29.00 m
形状 Box + pan
製造者 SPXS
バスタイプ Starlink V2M
フェーズステータス In Orbit
所有者/国 SPXS/US

大規模コンステレーション

Loading constellations...